DW8097 Weather Reports


Display with metric or nautical units.
time (UTC)temp
F
wind
direction
speed
MPH
gust
MPH
rain 1hr
in
rain 24hr
in
rain mn
in
humidity
%
barometer
mb
20260902050052 68 184 0.0 0.0 0.00 0.00 0.00 90 1010.4
20260902044549 68 184 0.0 0.0 0.00 0.00 0.00 90 1010.3
20260902043050 68 184 0.0 0.0 0.00 0.00 0.00 90 1010.0
20260902041552 68 184 0.0 0.0 0.00 0.00 0.00 89 1010.1
20260902040044 68 184 0.0 0.0 0.00 0.00 0.00 89 1010.3
20260902034555 68 184 0.0 0.0 0.00 0.00 0.00 89 1010.6
20260902033057 69 184 0.0 0.0 0.00 0.00 0.00 89 1010.8
20260902031541 69 221 0.0 0.0 0.00 0.00 0.00 89 1010.7
20260902030027 69 221 0.0 0.0 0.00 0.00 0.00 88 1010.6
20260902024527 70 221 0.0 0.0 0.00 0.00 0.00 88 1010.6
20260902023025 70 221 0.0 0.0 0.00 0.00 0.00 88 1010.5
20260902020025 71 248 0.0 0.0 0.00 0.00 0.00 86 1010.4
20260902014518 72 209 0.0 0.0 0.00 0.00 0.00 86 1010.3
20260902013016 72 209 0.0 0.0 0.00 0.00 0.00 84 1010.1
20260902010014 74 209 0.0 0.0 0.00 0.00 0.00 85 1010.3
20260902004515 75 209 0.0 0.0 0.00 0.00 0.00 82 1010.1
20260902003002 76 220 0.0 0.0 0.00 0.00 0.00 80 1010.2
20260902001656 77 256 0.0 0.0 0.00 0.00 0.00 77 1010.1
20260902000056 79 256 0.0 0.0 0.00 0.00 0.00 72 1010.1
20260901234557 80 256 0.0 0.0 0.00 0.00 0.00 68 1010.0
20260901233051 80 261 0.0 0.0 0.00 0.00 0.00 69 1010.1
20260901231545 82 310 0.0 0.0 0.00 0.00 0.00 65 1009.9
20260901230042 82 292 0.0 0.0 0.00 0.00 0.00 63 1009.8
20260901224543 82 208 0.0 0.0 0.00 0.00 0.00 62 1009.8
20260901223034 83 283 0.0 1.0 0.00 0.00 0.00 59 1010.1
20260901221534 83 227 0.0 0.0 0.00 0.00 0.00 60 1010.1
20260901220031 83 208 0.0 0.0 0.00 0.00 0.00 56 1009.9
20260901214533 84 202 0.0 0.0 0.00 0.00 0.00 53 1010.0
20260901213032 85 286 0.0 0.0 0.00 0.00 0.00 51 1010.2
20260901211533 85 323 0.0 1.0 0.00 0.00 0.00 50 1009.8
20260901210026 86 235 0.0 2.0 0.00 0.00 0.00 47 1010.1
20260901204521 86 297 0.0 1.0 0.00 0.00 0.00 48 1010.0
20260901203021 84 269 0.0 0.0 0.00 0.00 0.00 51 1010.1
20260901201519 85 267 0.0 1.0 0.00 0.00 0.00 48 1010.5
20260901200022 86 243 0.0 5.0 0.00 0.00 0.00 46 1010.6
20260901194517 86 198 0.0 0.0 0.00 0.00 0.00 44 1010.6
20260901193130 89 136 0.0 2.0 0.00 0.00 0.00 41 1010.5
20260901191515 92 102 0.0 4.0 0.00 0.00 0.00 38 1010.3
20260901190018 90 86 0.0 6.0 0.00 0.00 0.00 41 1010.6
20260901184505 91 78 1.0 8.0 0.00 0.00 0.00 39 1010.8
20260901183001 92 78 1.0 8.0 0.00 0.00 0.00 38 1011.1
20260901181500 94 324 0.0 5.0 0.00 0.00 0.00 37 1011.2
20260901180054 93 130 1.0 7.0 0.00 0.00 0.00 39 1011.2
20260901174546 90 144 1.0 6.0 0.00 0.00 0.00 38 1011.3
20260901173039 91 123 0.0 7.0 0.00 0.00 0.00 41 1011.5
20260901171542 90 124 0.0 5.0 0.00 0.00 0.00 36 1011.6
20260901170025 87 360 0.0 0.0 0.00 0.00 0.00 51 1011.8
20260901164520 85 52 0.0 2.0 0.00 0.00 0.00 54 1011.9
20260901163014 84 360 0.0 4.0 0.00 0.00 0.00 57 1012.0
20260901161513 83 115 0.0 5.0 0.00 0.00 0.00 60 1011.9
20260901160111 83 106 1.0 8.0 0.00 0.00 0.00 63 1011.8
20260901154600 81 101 2.0 9.0 0.00 0.00 0.00 66 1011.9
20260901153059 81 46 0.0 2.0 0.00 0.00 0.00 68 1011.9
20260901151606 79 325 0.0 1.0 0.00 0.00 0.00 72 1012.1
20260901150056 76 318 0.0 2.0 0.00 0.00 0.00 76 1012.3
20260901144556 76 22 0.0 3.0 0.00 0.00 0.00 76 1012.2
20260901143109 75 345 0.0 0.0 0.00 0.00 0.00 78 1012.4
20260901141555 73 355 0.0 0.0 0.00 0.00 0.00 81 1012.3
20260901140104 72 11 1.0 4.0 0.00 0.00 0.00 84 1012.4
20260901134550 70 329 0.0 0.0 0.00 0.00 0.00 86 1012.4
20260901133047 69 322 0.0 0.0 0.00 0.00 0.00 87 1012.2
20260901131545 66 315 0.0 0.0 0.00 0.00 0.00 90 1012.0
20260901130044 66 229 0.0 0.0 0.00 0.00 0.00 89 1011.9
20260901124542 66 229 0.0 0.0 0.00 0.00 0.00 91 1011.9
20260901123042 65 253 0.0 0.0 0.00 0.00 0.00 92 1012.0
20260901121555 63 253 0.0 0.0 0.00 0.00 0.00 93 1011.8
20260901120037 62 253 0.0 0.0 0.00 0.00 0.00 93 1011.7
20260901114533 63 253 0.0 0.0 0.00 0.00 0.00 93 1011.4
20260901113032 63 253 0.0 0.0 0.00 0.00 0.00 92 1011.2
20260901111526 63 294 0.0 0.0 0.00 0.00 0.00 92 1011.3
20260901110032 63 247 0.0 0.0 0.00 0.00 0.00 92 1011.1
20260901104527 63 246 0.0 0.0 0.00 0.00 0.00 92 1011.1
20260901103026 64 246 0.0 0.0 0.00 0.00 0.00 92 1011.1
20260901101526 64 246 0.0 0.0 0.00 0.00 0.00 92 1010.9
20260901100019 63 224 0.0 0.0 0.00 0.00 0.00 92 1010.8
20260901094516 64 310 0.0 0.0 0.00 0.00 0.00 93 1010.8
20260901093015 63 243 0.0 0.0 0.00 0.00 0.00 92 1010.6
20260901091511 64 315 0.0 0.0 0.00 0.00 0.00 92 1010.8
20260901090013 64 315 0.0 0.0 0.00 0.00 0.00 93 1010.6
20260901084507 64 229 0.0 0.0 0.00 0.00 0.00 92 1010.5
20260901083007 65 229 0.0 0.0 0.00 0.00 0.00 92 1010.6
20260901081505 65 229 0.0 0.0 0.00 0.00 0.00 92 1010.5
20260901080005 66 249 0.0 0.0 0.00 0.00 0.00 91 1010.8
20260901074558 65 227 0.0 0.0 0.00 0.00 0.00 91 1010.8
20260901073058 65 227 0.0 0.0 0.00 0.00 0.00 91 1011.2
20260901071552 67 289 0.0 0.0 0.00 0.00 0.00 90 1011.1
20260901070056 67 348 0.0 0.0 0.00 0.00 0.00 91 1011.2
20260901064524 67 245 0.0 0.0 0.00 0.00 0.00 91 1010.9
20260901063026 67 244 0.0 0.0 0.00 0.00 0.00 90 1011.0
20260901061511 67 304 0.0 0.0 0.00 0.00 0.00 91 1010.8
20260901060007 67 223 0.0 0.0 0.00 0.00 0.00 91 1010.6
20260901054504 68 264 0.0 0.0 0.00 0.00 0.00 91 1010.5
20260901053000 68 235 0.0 0.0 0.00 0.00 0.00 90 1010.3
20260901051528 69 281 0.0 0.0 0.00 0.00 0.00 91 1010.2